When you browse on this site, cookies collect data to enhance your experience and personalize the content and advertising you see.
Visit our Privacy Policy to learn more. By continuing to use the site, you agree to this use of cookies and data.

Hourly Weather Montreal

Today, 9 July, Thursday

Time Temperature Precipitation Wind Pressure Humidity
00:00 +24°C° 0.1 mm 2 mps 756 mmHg 85%
01:00 +23°C° 0 mm 2 mps 756 mmHg 86%
02:00 +23°C° 0 mm 1 mps 756 mmHg 87%
03:00 +23°C° 0 mm 1 mps 756 mmHg 89%
04:00 +22°C° 0 mm 1 mps 756 mmHg 90%
05:00 +23°C° 0 mm 1 mps 757 mmHg 89%
06:00 +24°C° 0 mm 2 mps 757 mmHg 87%
07:00 +25°C° 0 mm 3 mps 757 mmHg 87%
08:00 +27°C° 0 mm 3 mps 757 mmHg 81%
09:00 +28°C° 0 mm 2 mps 757 mmHg 75%
10:00 +30°C° 0 mm 2 mps 757 mmHg 69%
11:00 +31°C° 0.2 mm 2 mps 756 mmHg 65%
12:00 +33°C° 0.2 mm 3 mps 756 mmHg 61%
13:00 +34°C° 0.2 mm 3 mps 756 mmHg 56%
14:00 +34°C° 0 mm 3 mps 756 mmHg 56%
15:00 +34°C° 0 mm 3 mps 756 mmHg 55%
16:00 +34°C° 0 mm 3 mps 756 mmHg 55%
17:00 +32°C° 0 mm 2 mps 756 mmHg 60%
18:00 +31°C° 0 mm 2 mps 756 mmHg 65%
19:00 +30°C° 0 mm 2 mps 756 mmHg 70%
20:00 +29°C° 0 mm 2 mps 756 mmHg 72%
21:00 +28°C° 0 mm 2 mps 756 mmHg 73%
22:00 +27°C° 0 mm 1 mps 757 mmHg 75%
23:00 +26°C° 0 mm 1 mps 757 mmHg 77%

Tomorrow, 10 July, Friday

Time Temperature Precipitation Wind Pressure Humidity
00:00 +26°C° 0 mm 1 mps 757 mmHg 79%
01:00 +25°C° 0 mm 1 mps 757 mmHg 80%
02:00 +25°C° 0 mm 1 mps 757 mmHg 82%
03:00 +24°C° 0 mm 1 mps 757 mmHg 83%
04:00 +24°C° 0 mm 2 mps 757 mmHg 85%
05:00 +25°C° 0 mm 2 mps 757 mmHg 82%
06:00 +26°C° 0 mm 2 mps 757 mmHg 80%
07:00 +27°C° 0 mm 2 mps 757 mmHg 78%
08:00 +28°C° 0 mm 2 mps 757 mmHg 73%
09:00 +30°C° 0 mm 2 mps 757 mmHg 69%
10:00 +31°C° 0 mm 2 mps 756 mmHg 64%
11:00 +32°C° 0 mm 2 mps 756 mmHg 60%
12:00 +34°C° 0 mm 2 mps 756 mmHg 55%
13:00 +36°C° 0 mm 3 mps 755 mmHg 51%
14:00 +36°C° 0 mm 3 mps 755 mmHg 51%
15:00 +36°C° 0 mm 4 mps 754 mmHg 51%
16:00 +36°C° 0 mm 4 mps 754 mmHg 51%
17:00 +34°C° 0 mm 4 mps 754 mmHg 53%
18:00 +32°C° 0 mm 4 mps 754 mmHg 55%
19:00 +29°C° 0 mm 5 mps 754 mmHg 57%
20:00 +29°C° 0 mm 5 mps 754 mmHg 61%
21:00 +28°C° 0 mm 5 mps 754 mmHg 65%
22:00 +28°C° 0 mm 5 mps 754 mmHg 68%
23:00 +27°C° 0.3 mm 4 mps 753 mmHg 74%

Day after tomorrow, 11 July, Saturday

Time Temperature Precipitation Wind Pressure Humidity
00:00 +26°C° 0.3 mm 3 mps 753 mmHg 79%
01:00 +25°C° 0.3 mm 3 mps 752 mmHg 85%
02:00 +25°C° 0.7 mm 3 mps 752 mmHg 86%
03:00 +25°C° 0.7 mm 3 mps 751 mmHg 87%
04:00 +24°C° 0.7 mm 3 mps 750 mmHg 89%
05:00 +23°C° 1.4 mm 4 mps 750 mmHg 90%
06:00 +23°C° 1.4 mm 4 mps 749 mmHg 91%
07:00 +23°C° 1.4 mm 5 mps 749 mmHg 91%
08:00 +23°C° 5.5 mm 4 mps 748 mmHg 92%
09:00 +23°C° 5.5 mm 4 mps 748 mmHg 93%
10:00 +24°C° 5.5 mm 3 mps 748 mmHg 94%
11:00 +25°C° 0.3 mm 4 mps 748 mmHg 89%
12:00 +26°C° 0.3 mm 5 mps 748 mmHg 84%
13:00 +27°C° 0.3 mm 6 mps 748 mmHg 79%
14:00 +28°C° 0 mm 5 mps 748 mmHg 77%
15:00 +29°C° 0 mm 4 mps 748 mmHg 75%
16:00 +30°C° 0 mm 3 mps 748 mmHg 73%
17:00 +29°C° 1 mm 2 mps 748 mmHg 76%
18:00 +28°C° 1 mm 2 mps 748 mmHg 80%
19:00 +27°C° 1 mm 1 mps 748 mmHg 83%
20:00 +27°C° 0.8 mm 1 mps 748 mmHg 83%
21:00 +26°C° 0.8 mm 2 mps 748 mmHg 84%
22:00 +26°C° 0.8 mm 2 mps 748 mmHg 84%
23:00 +25°C° 0 mm 2 mps 748 mmHg 85%

12 July, Sunday

Time Temperature Precipitation Wind Pressure Humidity
00:00 +25°C° 0 mm 2 mps 747 mmHg 87%
01:00 +24°C° 0 mm 1 mps 747 mmHg 88%
02:00 +24°C° 0.3 mm 1 mps 747 mmHg 89%
03:00 +23°C° 0.3 mm 1 mps 747 mmHg 90%
04:00 +23°C° 0.3 mm 1 mps 746 mmHg 90%
05:00 +24°C° 1 mm 2 mps 747 mmHg 90%
06:00 +24°C° 1 mm 2 mps 747 mmHg 89%
07:00 +24°C° 1 mm 3 mps 747 mmHg 88%
08:00 +23°C° 0.2 mm 4 mps 747 mmHg 89%
09:00 +23°C° 0.2 mm 4 mps 747 mmHg 89%
10:00 +23°C° 0.2 mm 5 mps 747 mmHg 89%
11:00 +26°C° 0.3 mm 5 mps 747 mmHg 84%
12:00 +27°C° 0.3 mm 6 mps 747 mmHg 78%
13:00 +29°C° 0.3 mm 6 mps 748 mmHg 73%
14:00 +28°C° 0.4 mm 6 mps 748 mmHg 72%
15:00 +28°C° 0.4 mm 6 mps 748 mmHg 72%
16:00 +28°C° 0.4 mm 6 mps 748 mmHg 72%
17:00 +27°C° 0 mm 5 mps 749 mmHg 73%
18:00 +27°C° 0 mm 4 mps 749 mmHg 73%
19:00 +26°C° 0 mm 3 mps 750 mmHg 73%
20:00 +25°C° 0 mm 2 mps 750 mmHg 74%
21:00 +24°C° 0 mm 2 mps 750 mmHg 75%
22:00 +23°C° 0 mm 1 mps 751 mmHg 76%
23:00 +23°C° 0 mm 1 mps 751 mmHg 78%

13 July, Monday

Time Temperature Precipitation Wind Pressure Humidity
00:00 +22°C° 0 mm 1 mps 751 mmHg 79%
01:00 +22°C° 0 mm 1 mps 751 mmHg 80%
02:00 +22°C° 0 mm 1 mps 751 mmHg 81%
03:00 +21°C° 0 mm 1 mps 752 mmHg 82%
04:00 +21°C° 0 mm 1 mps 752 mmHg 84%
05:00 +22°C° 0 mm 1 mps 752 mmHg 82%
06:00 +21°C° 0 mm 2 mps 752 mmHg 80%
07:00 +23°C° 0 mm 2 mps 752 mmHg 78%
08:00 +25°C° 0 mm 3 mps 751 mmHg 75%
09:00 +26°C° 0 mm 4 mps 751 mmHg 72%
10:00 +27°C° 0 mm 4 mps 751 mmHg 68%
11:00 +27°C° 0.1 mm 4 mps 750 mmHg 70%
12:00 +28°C° 0.1 mm 4 mps 750 mmHg 71%
13:00 +28°C° 0.1 mm 4 mps 750 mmHg 72%
14:00 +27°C° 2 mm 5 mps 749 mmHg 75%
15:00 +26°C° 2 mm 5 mps 749 mmHg 78%
16:00 +26°C° 2 mm 5 mps 748 mmHg 80%
17:00 +24°C° 1.5 mm 6 mps 748 mmHg 83%
18:00 +24°C° 1.5 mm 6 mps 748 mmHg 85%
19:00 +23°C° 1.5 mm 6 mps 748 mmHg 87%
20:00 +22°C° 1.8 mm 5 mps 748 mmHg 89%
21:00 +22°C° 1.8 mm 5 mps 748 mmHg 91%
22:00 +21°C° 1.8 mm 4 mps 749 mmHg 92%
23:00 +21°C° 0.7 mm 3 mps 749 mmHg 91%

14 July, Tuesday

Time Temperature Precipitation Wind Pressure Humidity
00:00 +21°C° 0.7 mm 3 mps 748 mmHg 91%
01:00 +21°C° 0.7 mm 2 mps 748 mmHg 90%
02:00 +21°C° 0.1 mm 2 mps 749 mmHg 88%
03:00 +21°C° 0.1 mm 3 mps 749 mmHg 87%
04:00 +21°C° 0.1 mm 3 mps 749 mmHg 85%
05:00 +21°C° 0.1 mm 4 mps 749 mmHg 85%
06:00 +21°C° 0.1 mm 4 mps 750 mmHg 84%
07:00 +21°C° 0.1 mm 4 mps 750 mmHg 84%
08:00 +22°C° 0.2 mm 5 mps 750 mmHg 81%
09:00 +23°C° 0.2 mm 5 mps 751 mmHg 78%
10:00 +25°C° 0.2 mm 5 mps 751 mmHg 75%
11:00 +25°C° 0.5 mm 5 mps 751 mmHg 74%
12:00 +25°C° 0.5 mm 5 mps 751 mmHg 73%
13:00 +25°C° 0.5 mm 5 mps 751 mmHg 72%
14:00 +25°C° 0.3 mm 5 mps 751 mmHg 72%
15:00 +25°C° 0.3 mm 5 mps 751 mmHg 72%
16:00 +23°C° 0.3 mm 5 mps 751 mmHg 72%
17:00 +22°C° 0.3 mm 5 mps 752 mmHg 77%
18:00 +21°C° 0.3 mm 5 mps 752 mmHg 82%
19:00 +20°C° 0.3 mm 4 mps 752 mmHg 87%
20:00 +20°C° 0.3 mm 4 mps 753 mmHg 89%
21:00 +20°C° 0.3 mm 4 mps 753 mmHg 91%
22:00 +20°C° 0.3 mm 4 mps 753 mmHg 93%
23:00 +20°C° 0.3 mm 3 mps 753 mmHg 93%
Show more